Regional Weather Roundup
Issued by NWS

Home | Current Version | Previous Version | Text Only | Print | Product List | Glossary On
Versions: 1 2 3 4 5 6 7 8 9 10 11 12 13 14 15 16 17 18 19 20 21 22 23 24 25 26 27 28 29 30 31 32 33 34 35 36 37 38 39 40 41 42 43 44 45 46 47 48 49 50
000
ASUS44 KFWD 301015
RWRTX
NORTH TEXAS HOURLY WEATHER ROUNDUP
NATIONAL WEATHER SERVICE FORT WORTH TX
500 AM CDT SAT JUL 30 2016

NOTE: "FAIR" INDICATES FEW OR NO CLOUDS BELOW 12,000 FEET WITH NO
SIGNIFICANT WEATHER AND/OR OBSTRUCTIONS TO VISIBILITY.

TXZ118-119-301100-
DALLAS/FORT WORTH METROPLEX

CITY           SKY/WX    TMP DP  RH WIND       PRES   REMARKS
DFW AIRPORT    CLEAR     82  71  69 S13       29.96S
DALLAS LOVE    CLEAR     83  72  69 S7        29.96F
FTW MEACHAM    CLEAR     82  69  64 S9        29.97S
DAL-EXECUTIVE  CLEAR     79  71  76 VRB6      29.97S
FTW-ALLIANCE   CLEAR     78  70  76 S5        29.96S
FTW-NAS-JRB    CLEAR     80  69  69 S9        29.97S
FTW-SPINKS     CLEAR     78  70  76 S8        29.98F
ARLINGTON      CLEAR     79  72  79 S7        29.97S
GRAND PRAIRIE  CLEAR     79  71  74 S9        29.98S
ADDISON        CLEAR     82  74  76 S8        29.99S
MESQUITE       CLEAR     75  74  97 S5        29.97F
LANCASTER      CLEAR     79  73  80 S3        29.98S
$$

TXZ091>094-102>105-117-120-121-131>134-301100-
NORTH CENTRAL TEXAS

CITY           SKY/WX    TMP DP  RH WIND       PRES   REMARKS
SHRMAN/DENISON CLEAR     79  72  79 S9        29.98S
GAINESVILLE    CLOUDY    76  73  91 CALM      29.99S
BOWIE          CLEAR     74  71  90 CALM      29.98S
BRIDGEPORT     CLEAR     73  71  93 CALM      29.99R
DECATUR        CLEAR     78  67  67 S8        29.98S
DENTON         CLEAR     77  72  84 S3        29.96F
MCKINNEY       CLEAR     78  73  84 S6        29.97F
GREENVILLE     CLEAR     77  70  78 S6        29.98S
ROCKWALL       CLEAR     78  73  84 S8        29.97S
TERRELL        CLEAR     78  73  84 S3        29.98F
WAXAHACHIE     CLEAR     76  73  91 S5        30.00R
CLEBURNE       CLEAR     77  73  88 SE7       30.01R
GRANBURY       CLEAR     80  69  68 CALM      29.99S
$$

TXZ083>090-098>101-113>116-127>130-139>142-154-155-301100-
WESTERN NORTH TEXAS

CITY           SKY/WX    TMP DP  RH WIND       PRES   REMARKS
WICHITA FALLS  CLOUDY    74  70  87 S6        29.95F
WF-KICKAPOO    CLEAR     77  70  79 SE8       29.97R
VERNON         CLOUDY    77  65  65 CALM      29.97S
ABILENE        CLEAR     78  63  59 S12       30.02R
ABILENE-DYESS  CLEAR     78  64  63 S10       30.01R
BRECKENRIDGE   CLEAR     79  65  60 S8        29.99R
GRAHAM         CLEAR     78  67  69 S3        29.97R
MINERAL WELLS  CLEAR     73  69  87 SE6       29.97S
STEPHENVILLE   CLEAR     74  66  77 CALM      30.03S
COMANCHE       CLEAR     78  69  72 SW9       30.02R
BROWNWOOD      PTCLDY    75  66  73 SE3       30.02S
COLEMAN        PTCLDY    74  64  71 SW5       30.03S
$$

TXZ143>147-156>162-174-175-301100-
CENTRAL TEXAS

CITY           SKY/WX    TMP DP  RH WIND       PRES   REMARKS
WACO           PTCLDY    80  72  76 S10       29.99S
WACO-MCGREGOR  CLOUDY    79  72  79 S8        29.99F
HILLSBORO      CLOUDY    79  71  76 S8        30.00R
CORSICANA      CLOUDY    81  72  74 S10       30.00S
MEXIA          CLOUDY    78  73  84 S9        29.99S
HEARNE         CLEAR     75  74  95 CALM      30.02S
CAMERON        PTCLDY    77  74  90 S5        30.01S
TEMPLE         CLEAR     77  73  87 S9        30.01S
KILLEEN        CLOUDY    76  71  85 S7        30.01S
KILLEEN-SKYLRK PTCLDY    78  73  84 S9        30.01S
FORT HOOD      CLOUDY    77  71  84 S7        29.99S
GATESVILLE     CLOUDY    81  72  74 S5        30.02S
HAMILTON       CLOUDY    78  69  73 S6        30.02S
LAMPASAS       MOCLDY    78  73  85 S5        30.01S
$$

TXZ095>097-106>112-122>126-135>138-148>153-164>167-301100-
EAST TEXAS

CITY           SKY/WX    TMP DP  RH WIND       PRES   REMARKS
PARIS          CLEAR     72  63  73 CALM      29.99R
SULPHUR SPRNGS CLEAR     76  69  77 S6        30.00S
MOUNT PLEASANT CLEAR     71  67  88 CALM      30.00S
GILMER         CLEAR     74  71  91 CALM      29.99R
MINEOLA        CLEAR     79  73  83 SE3       29.99F
TYLER          CLOUDY    80  73  79 SW5       29.99S
LONGVIEW       CLOUDY    78  73  84 SW6       29.98S
MARSHALL       CLOUDY    72  70  92 CALM      30.01S
ATHENS         CLOUDY    77  75  94 S3        29.98S
PALESTINE      CLOUDY    78  75  90 S3        30.01S
JACKSONVILLE   CLOUDY    77  74  90 SW6       30.03S
HENDERSON      CLOUDY    75  73  91 CALM      30.00S
CENTER         CLOUDY    80  77  91 S3        30.00S
NACOGDOCHES    CLOUDY   N/A N/A N/A SW3       29.99S
LUFKIN         CLOUDY    77  75  93 SW5       30.00S
$$

SUPPLEMENTAL OBSERVATIONS (CENTRAL)

CITY           SKY/WX    TMP DP  RH WIND       PRES   REMARKS
DENISON DAM      N/A     79  70  73 SE5         N/A
CADDO GRASSLND   N/A     77  66  69 S9          N/A
PAT MAYSE LAKE   N/A     72  70  94 E1          N/A
GREENVILLE       N/A     75  68  78 S5          N/A
CEDAR HILL       N/A     81  72  74 S7G15       N/A
LAKE LIMESTONE   N/A     77  72  83 S5          N/A
MCGREGOR         N/A     77  72  83 S7          N/A
$$

SUPPLEMENTAL OBSERVATIONS (WEST)

CITY           SKY/WX    TMP DP  RH WIND       PRES   REMARKS
MILLERS CREEK    N/A     79  64  61 S7          N/A
LBJ GRASSLAND    N/A     77  68  73 SE6         N/A
COMANCHE         N/A     79  68  69 SW7         N/A
HAMBY            N/A     75  63  64 S8          N/A
IVIE RESERVOIR   N/A     75  66  73 E1          N/A
COLORADO BEND    N/A     77  68  73 SW6         N/A
$$

SUPPLEMENTAL OBSERVATIONS (EAST)

CITY           SKY/WX    TMP DP  RH WIND       PRES   REMARKS
CLARKSVILLE      N/A     72  70  94 S2          N/A
TEXARKANA        N/A     72  70  94 CALM        N/A
LINDEN           N/A     72  66  83 CALM        N/A
GILMER           N/A     75  72  88 E1          N/A
HENDERSON        N/A     75  72  88 S1          N/A
LUFKIN           N/A     75  73  94 MISG        N/A
N SABINE NF      N/A     77  73  88 MISG        N/A
S SABINE NF      N/A     75  72  88 S2          N/A
$$

SUPPLEMENTAL OBSERVATIONS ARE A COLLECTION OF AUTOMATED INSTRUMENTS
THAT ARE MAINTAINED BY A VARIETY OF FEDERAL AND STATE AGENCIES.
CERTAIN ELEMENTS...SUCH AS HUMIDITY VALUES AND SUSTAINED WIND
SPEEDS...MAY BE APPROXIMATED.





USA.gov is the U.S. government's official web portal to all federal, state and local government web resources and services.